Location: Chicoutimi
(48.4330°N, 71.0670°W)
Time: 20:58:37
(UTC-04:00)

ISS - Visible Passes

Search period start: 04 May 2016 00:00
Search period end: 14 May 2016 00:00
Orbit: 402 x 405 km, 51.6° (Epoch: 04 May)

Date Brightness Start Highest point End Pass type
(mag) Time Alt. Az. Time Alt. Az. Time Alt. Az.
10 May -1.2 04:26:22 10° S 04:28:47 19° SE 04:31:13 10° E visible
11 May -0.8 03:35:14 10° SSE 03:36:26 12° SE 03:37:37 10° ESE visible
12 May -2.3 04:16:45 10° SW 04:19:47 36° SSE 04:22:50 10° ENE visible
13 May -1.6 03:26:02 18° S 03:27:19 22° SE 03:29:57 10° E visible
